Location: CNYAC Observatory
(43.2150°N, 74.9500°W)
Time: 04:16:56
(UTC-04:00)

Cosmos 1975 Rocket - Visible Passes

Search period start: 02 May 2016 00:00
Search period end: 12 May 2016 00:00
Orbit: 603 x 635 km, 82.5° (Epoch: 01 May)

Date Brightness Start Highest point End Pass type
(mag) Time Alt. Az. Time Alt. Az. Time Alt. Az.
02 May 3.2 22:02:48 19° SSW 22:05:49 71° W 22:10:09 10° N visible
03 May 4.5 20:42:45 10° SE 20:45:46 19° E 20:48:47 10° NE visible
03 May 4.4 22:19:19 10° SW 22:23:20 37° WNW 22:27:22 10° N visible
04 May 3.7 20:59:06 10° SSE 21:02:59 34° E 21:06:53 10° NNE visible
04 May 5.4 22:37:39 10° WSW 22:40:56 21° WNW 22:44:15 10° NNW visible
05 May 3.0 21:16:02 10° S 21:20:18 65° E 21:24:37 10° NNE visible
05 May 6.0 22:56:59 10° W 22:58:39 12° WNW 23:00:20 10° NW visible
06 May 3.4 21:33:26 10° SSW 21:37:43 66° W 21:42:03 10° N visible
07 May 4.6 21:51:17 10° SW 21:55:14 35° WNW 21:59:15 10° N visible
08 May 5.6 22:09:40 10° WSW 22:12:52 20° WNW 22:16:05 10° NNW visible
09 May 3.0 20:47:55 10° S 20:52:12 69° E 20:56:32 10° NNE visible
09 May 6.2 22:29:13 10° W 22:30:35 11° WNW 22:31:59 10° NW visible
10 May 3.6 21:05:21 10° SSW 21:09:37 62° W 21:13:57 10° N visible
11 May 4.9 21:23:13 10° SW 21:27:09 33° WNW 21:31:07 10° N visible
